Location: Bazinghen
(50.8246°N, 1.6616°E)
Time: 23:04:10
(UTC+00:00)

Cosmos 2221 - Pass Details

Date: 09 April 2020
Orbit: 592 x 617 km, 82.5° (Epoch: 26 May)

Event Time Altitude Azimuth Distance (km) Brightness Sun altitude
Exits shadow 21:46:37 25° 50° (NE) 1,243 4.1 -25.0°
Drops below altitude 10° 21:48:57 10° 27° (NNE) 1,982 5.5 -25.2°
Sets 21:51:19 0° 18° (NNE) 2,888 6.5 -25.4°
